EW3027 Weather Reports


Display with metric or nautical units.
time (UTC)temp
F
wind
direction
speed
MPH
gust
MPH
rain 1hr
in
rain 24hr
in
rain mn
in
humidity
%
barometer
mb
20260510130316 52 0.0 0.0 0.00 0.00 0.00 87 1017.8
20260510125316 52 0.0 0.0 0.00 0.00 0.00 87 1017.6
20260510124317 52 0.0 0.0 0.00 0.00 0.00 87 1017.5
20260510123317 52 0.0 0.0 0.00 0.00 0.00 87 1017.5
20260510122316 52 0.0 0.0 0.00 0.00 0.00 87 1017.4
20260510121317 52 0.0 0.0 0.00 0.00 0.00 87 1017.5
20260510120337 52 0.0 0.0 0.00 0.00 0.00 87 1017.5
20260510115316 52 0.0 0.0 0.00 0.00 0.00 87 1017.4
20260510114316 53 0.0 0.0 0.00 0.00 0.00 86 1017.3
20260510113316 53 0.0 0.0 0.00 0.00 0.00 86 1017.3
20260510112316 53 0.0 0.0 0.00 0.00 0.00 85 1017.1
20260510111316 53 0.0 0.0 0.00 0.00 0.00 85 1017.2
20260510110316 54 0.0 0.0 0.00 0.00 0.00 85 1017.1
20260510105316 54 0.0 0.0 0.00 0.00 0.00 84 1017.1
20260510104316 54 0.0 0.0 0.00 0.00 0.00 84 1016.9
20260510103317 54 0.0 0.0 0.00 0.00 0.00 84 1016.7
20260510102316 54 0.0 0.0 0.00 0.00 0.00 84 1016.7
20260510101316 55 0.0 0.0 0.00 0.00 0.00 83 1016.8
20260510100316 55 0.0 0.0 0.00 0.00 0.00 83 1016.4
20260510095316 55 0.0 0.0 0.00 0.00 0.00 82 1016.3
20260510094316 55 0.0 0.0 0.00 0.00 0.00 81 1016.1
20260510093316 55 0.0 0.0 0.00 0.00 0.00 82 1016.1
20260510092336 55 0.0 0.0 0.00 0.00 0.00 82 1016.1
20260510091337 55 0.0 0.0 0.00 0.00 0.00 82 1016.0
20260510090316 55 0.0 0.0 0.00 0.00 0.00 81 1016.1
20260510085316 56 0.0 0.0 0.00 0.00 0.00 81 1016.0
20260510084336 56 0.0 0.0 0.00 0.00 0.00 80 1016.0
20260510083316 57 0.0 0.0 0.00 0.00 0.00 78 1016.2
20260510082317 57 0.0 0.0 0.00 0.00 0.00 77 1015.8
20260510081316 58 0.0 0.0 0.00 0.00 0.00 77 1015.7
20260510080316 58 0.0 0.0 0.00 0.00 0.00 77 1015.9
20260510075337 57 0.0 0.0 0.00 0.00 0.00 78 1016.0
20260510074316 57 0.0 0.0 0.00 0.00 0.00 78 1016.1
20260510073316 58 0.0 0.0 0.00 0.00 0.00 78 1016.0
20260510072316 58 0.0 0.0 0.00 0.00 0.00 77 1015.9
20260510071337 58 0.0 0.0 0.00 0.00 0.00 77 1015.8
20260510070316 58 0.0 0.0 0.00 0.00 0.00 76 1015.8
20260510065318 59 0.0 0.0 0.00 0.00 0.00 76 1015.6
20260510064317 59 0.0 0.0 0.00 0.00 0.00 74 1015.6
20260510063317 59 0.0 0.0 0.00 0.00 0.00 74 1015.5
20260510062317 59 0.0 0.0 0.00 0.00 0.00 73 1015.5
20260510061317 60 0.0 0.0 0.00 0.00 0.00 72 1015.5
20260510060317 60 0.0 0.0 0.00 0.00 0.00 71 1015.4
20260510055318 60 0.0 0.0 0.00 0.00 0.00 70 1015.3
20260510054318 60 0.0 0.0 0.00 0.00 0.00 68 1015.3
20260510053358 60 0.0 0.0 0.00 0.00 0.00 67 1015.3
20260510052338 61 0.0 0.0 0.00 0.00 0.00 65 1015.3
20260510051317 61 0.0 0.0 0.00 0.00 0.00 63 1015.2
20260510050337 62 0.0 0.0 0.00 0.00 0.00 61 1015.1
20260510045318 62 0.0 0.0 0.00 0.00 0.00 60 1015.0
20260510044338 63 0.0 0.0 0.00 0.00 0.00 58 1015.0
20260510043317 63 0.0 0.0 0.00 0.00 0.00 57 1014.8
20260510042318 64 0.0 0.0 0.00 0.00 0.00 58 1014.7
20260510041317 64 0.0 0.0 0.00 0.00 0.00 56 1014.6
20260510040317 65 0.0 0.0 0.00 0.00 0.00 55 1014.5
20260510035337 66 0.0 0.0 0.00 0.00 0.00 53 1014.3
20260510034317 67 0.0 0.0 0.00 0.00 0.00 49 1014.2
20260510033317 68 0.0 0.0 0.00 0.00 0.00 47 1014.3
20260510032317 69 0.0 0.0 0.00 0.00 0.00 45 1014.1
20260510031338 70 0.0 0.0 0.00 0.00 0.00 43 1014.0
20260510030337 72 0.0 0.0 0.00 0.00 0.00 42 1013.9
20260510025317 73 0.0 0.0 0.00 0.00 0.00 35 1013.7
20260510024318 73 0.0 0.0 0.00 0.00 0.00 33 1013.6
20260510023318 74 0.0 0.0 0.00 0.00 0.00 33 1013.7
20260510022317 74 0.0 0.0 0.00 0.00 0.00 34 1013.8
20260510021317 74 0.0 0.0 0.00 0.00 0.00 32 1014.0
20260510020317 75 0.0 0.0 0.00 0.00 0.00 30 1014.0
20260510015337 75 0.0 0.0 0.00 0.00 0.00 28 1014.0
20260510014317 75 0.0 0.0 0.00 0.00 0.00 30 1014.0
20260510013318 75 0.0 0.0 0.00 0.00 0.00 32 1014.1
20260510012317 75 0.0 0.0 0.00 0.00 0.00 31 1014.2
20260510011317 75 0.0 0.0 0.00 0.00 0.00 32 1014.2
20260510010317 76 0.0 0.0 0.00 0.00 0.00 34 1014.4
20260510005317 75 0.0 0.0 0.00 0.00 0.00 34 1014.3
20260510004337 75 0.0 0.0 0.00 0.00 0.00 30 1014.3
20260510003337 75 0.0 0.0 0.00 0.00 0.00 36 1014.3
20260510002317 75 0.0 0.0 0.00 0.00 0.00 36 1014.4
20260510001317 75 0.0 0.0 0.00 0.00 0.00 40 1014.5
20260510000337 75 0.0 0.0 0.00 0.00 0.00 41 1014.4
20260509235317 75 0.0 0.0 0.00 0.00 0.00 44 1014.5
20260509234317 75 0.0 0.0 0.00 0.00 0.00 45 1014.6
20260509233317 75 0.0 0.0 0.00 0.00 0.00 47 1014.7
20260509232317 74 0.0 0.0 0.00 0.00 0.00 48 1014.7
20260509231317 74 0.0 0.0 0.00 0.00 0.00 51 1014.9
20260509230317 74 0.0 0.0 0.00 0.00 0.00 48 1015.1
20260509225317 74 0.0 0.0 0.00 0.00 0.00 51 1015.1
20260509224317 74 0.0 0.0 0.00 0.00 0.00 51 1015.3
20260509223317 73 0.0 0.0 0.00 0.00 0.00 52 1015.3
20260509222337 73 0.0 0.0 0.00 0.00 0.00 54 1015.4
20260509221337 73 0.0 0.0 0.00 0.00 0.00 53 1015.7
20260509220317 73 0.0 0.0 0.00 0.00 0.00 55 1015.8
20260509215317 73 0.0 0.0 0.00 0.00 0.00 56 1016.1
20260509214317 72 0.0 0.0 0.00 0.00 0.00 57 1016.1
20260509213317 72 0.0 0.0 0.00 0.00 0.00 56 1016.3
20260509212317 71 0.0 0.0 0.00 0.00 0.00 56 1016.3
20260509211317 71 0.0 0.0 0.00 0.00 0.00 58 1016.2
20260509210417 70 0.0 0.0 0.00 0.00 0.00 60 1016.4
20260509205317 70 0.0 0.0 0.00 0.00 0.00 58 1016.5
20260509204317 69 0.0 0.0 0.00 0.00 0.00 61 1016.6
20260509203317 69 0.0 0.0 0.00 0.00 0.00 60 1016.8
20260509202317 68 0.0 0.0 0.00 0.00 0.00 62 1016.8
20260509201317 68 0.0 0.0 0.00 0.00 0.00 62 1017.0
20260509200317 68 0.0 0.0 0.00 0.00 0.00 63 1017.2
20260509195317 68 0.0 0.0 0.00 0.00 0.00 65 1017.2
20260509194317 67 0.0 0.0 0.00 0.00 0.00 64 1017.2
20260509193317 67 0.0 0.0 0.00 0.00 0.00 66 1017.4
20260509192316 66 0.0 0.0 0.00 0.00 0.00 68 1017.5
20260509191317 65 0.0 0.0 0.00 0.00 0.00 67 1017.7
20260509190317 65 0.0 0.0 0.00 0.00 0.00 68 1017.7
20260509185316 64 0.0 0.0 0.00 0.00 0.00 70 1017.9
20260509184337 63 0.0 0.0 0.00 0.00 0.00 70 1018.0
20260509183318 62 0.0 0.0 0.00 0.00 0.00 72 1018.1
20260509182337 61 0.0 0.0 0.00 0.00 0.00 74 1018.1
20260509181317 60 0.0 0.0 0.00 0.00 0.00 74 1018.2
20260509180316 60 0.0 0.0 0.00 0.00 0.00 75 1018.3
20260509175317 59 0.0 0.0 0.00 0.00 0.00 74 1018.3
20260509174316 59 0.0 0.0 0.00 0.00 0.00 76 1018.2
20260509173317 58 0.0 0.0 0.00 0.00 0.00 76 1018.3
20260509172316 57 0.0 0.0 0.00 0.00 0.00 78 1018.5
20260509171316 57 0.0 0.0 0.00 0.00 0.00 77 1018.6
20260509170337 57 0.0 0.0 0.00 0.00 0.00 79 1018.7
20260509165317 56 0.0 0.0 0.00 0.00 0.00 80 1018.7
20260509164316 56 23 1.0 2.0 0.00 0.00 0.00 81 1019.0
20260509163317 55 0.0 1.0 0.00 0.00 0.00 82 1019.1
20260509162337 55 0.0 2.0 0.00 0.00 0.00 83 1019.2
20260509161317 54 0.0 1.0 0.00 0.00 0.00 84 1019.3
20260509160316 54 23 2.0 3.0 0.00 0.00 0.00 85 1019.3
20260509155316 53 0.0 1.0 0.00 0.00 0.00 85 1019.3
20260509154316 53 0.0 0.0 0.00 0.00 0.00 87 1019.3
20260509153316 53 0 1.0 2.0 0.00 0.00 0.00 87 1019.6
20260509152316 53 0.0 0.0 0.00 0.00 0.00 89 1019.5
20260509151316 52 0.0 0.0 0.00 0.00 0.00 91 1019.5
20260509150317 51 0.0 0.0 0.00 0.00 0.00 94 1019.6
20260509145317 50 0.0 0.0 0.00 0.00 0.00 93 1019.5
20260509144316 49 0.0 0.0 0.00 0.00 0.00 94 1019.5
20260509143316 48 0.0 0.0 0.00 0.00 0.00 94 1019.7
20260509142316 47 0.0 0.0 0.00 0.00 0.00 94 1019.6
20260509141317 47 0.0 0.0 0.00 0.00 0.00 94 1019.8
20260509140316 46 0.0 0.0 0.00 0.00 0.00 93 1019.7
20260509135316 46 0.0 0.0 0.00 0.00 0.00 93 1019.6
20260509134316 46 0.0 0.0 0.00 0.00 0.00 93 1019.7
20260509133317 46 0.0 0.0 0.00 0.00 0.00 93 1019.7
20260509132316 46 0.0 0.0 0.00 0.00 0.00 93 1019.5
20260509131316 46 0.0 0.0 0.00 0.00 0.00 93 1019.7